Location: ??
(35.5653°N, 139.6194°E)
Time: 10:55:25
(UTC+00:00)

Cosmos 1842 - Pass Details

Date: 13 December 2025
Orbit: 414 x 425 km, 82.5° (Epoch: 18 January)

Event Time Altitude Azimuth Distance (km) Brightness Sun altitude
Rises 20:56:47 0° 0° (N) 2,403 6.4 -9.3°
Reaches altitude 10° 20:58:55 10° 8° (N) 1,528 5.4 -8.9°
Maximum altitude 21:02:05 42° 81° (E) 622 4.1 -8.3°
Drops below altitude 10° 21:05:13 10° 154° (SSE) 1,504 6.4 -7.7°
Sets 21:07:17 0° 161° (SSE) 2,360 7.2 -7.3°
